Location: Unspecified
(0.0000°N, 0.0000°E)
Time: 18:44:22
(UTC+00:00)

STARLINK-34048 - Pass Details

Date: 21 June 2025
Orbit: 482 x 484 km, 43.0° (Epoch: 20 July)

Event Time Altitude Azimuth Distance (km) Brightness Sun altitude
Rises 19:37:27 0° 224° (SW) 2,527 7.2 -21.8°
Reaches altitude 10° 19:39:38 10° 224° (SW) 1,647 6.3 -22.3°
Enters shadow 19:42:15 43° 223° (SW) 678 4.1 -22.9°
